Flag for Germany Weather past 2 weeks in Aschaffenburg, Bavaria, Germany

Now
33 °F

Low clouds.


Feels Like: 33 °F
Forecast: 27 / 34 °F
Wind: 1 mph from Southwest

Location: Frankfurt / M-Flughafen

Current Time: Feb 2, 2015 at 1:23:33 AM

Latest Report: Feb 2, 2015 at 1:00 AM


Visibility: 4 mi

Pressure: 29.44 "Hg

Humidity: 100%

Dew point: 32 °F

Location of AschaffenburgLocation

Historic Weather in Aschaffenburg — Graph

°F

Aschaffenburg temperature yesterday

Maximum temperature yesterday: 36 °F (at 1:00 PM)
Minimum temperature yesterday: 32 °F (at 12:00 AM)
Average temperature yesterday: 34 °F

Past Weeks' High & Low Weather Summary

 TemperatureHumidityPressure
High41 °F (Jan 28, 5:00 PM)100% (Jan 18, 8:00 AM)30.45 "Hg (Jan 18, 8:00 AM)
Low24 °F (Jan 24, 3:00 AM)66% (Jan 31, 1:00 PM)28.70 "Hg (Jan 30, 3:00 AM)
Average34 °F89%29.83 "Hg
* Reported Midnight between Jan 17 and Jan 18 — Midnight between Feb 1 and Feb 2, Aschaffenburg, Weather by CustomWeather, © 2014

Note: Actual official high and low records may vary slightly from our data, if they occured in-between our weather recording intervals... More about our weather records

Advertising

Aschaffenburg weather history for previous 24 hours

 ConditionsComfort  
Time TempWeatherWind HumidityBarometerVisibility
12:00 AM
Feb 2
33 °FLight snow. Low clouds.2 mph100%29.41 "Hg3 mi
11:00 PM
Feb 1
33 °FLight snow. Low clouds.2 mph100%29.38 "Hg6 mi
10:00 PM33 °FLight snow. Low clouds.2 mph99%29.38 "Hg5 mi
9:00 PM33 °FSnow. Low clouds.2 mph99%29.38 "Hg3 mi
8:00 PM34 °FLight rain. Low clouds.3 mph97%29.38 "Hg10 mi
7:00 PM35 °FLight snow. Overcast.3 mph93%29.35 "Hg11 mi
6:00 PM35 °FOvercast.3 mph94%29.35 "Hg12 mi
5:00 PM35 °FOvercast.3 mph93%29.32 "Hg12 mi
3:00 PM35 °FOvercast.5 mph89%29.29 "Hg12 mi
2:00 PM35 °FOvercast.6 mph88%29.29 "Hg16 mi
1:00 PM36 °FScattered clouds.6 mph84%29.29 "Hg16 mi
12:00 PM35 °FPassing clouds.5 mph86%29.29 "Hg9 mi
11:00 AM33 °FPartly sunny.5 mph93%29.26 "Hg7 mi
9:00 AM33 °FLow clouds.3 mph99%29.23 "Hg5 mi
8:00 AM33 °FLow clouds.3 mph98%29.21 "Hg4 mi
7:00 AM32 °FLow clouds.1 mph99%29.18 "Hg4 mi
6:00 AM32 °FLow clouds.1 mph100%29.18 "Hg5 mi
5:00 AM32 °FLight snow. Low clouds.1 mph99%29.15 "Hg3 mi
3:00 AM32 °FLight snow. Low clouds.1 mph100%29.15 "Hg2 mi
2:00 AM32 °FSnow. Low clouds.1 mph99%29.15 "Hg1 mi
1:00 AM32 °FLight snow. Low clouds.2 mph100%29.15 "Hg3 mi
Weather by CustomWeather, © 2014

See weather overviewHow to use our weather pages